Hourly Data Report for October 03, 2016

All times are specified in Local Standard Time (LST). Add 1 hour to adjust for Daylight Saving Time where and when it is observed.

ARVIAT A
NUNAVUT

61°05'38.000" N
94°04'18.000" W
10.40 m
2300427
71174
YEK

Related Data

No related data is available for this station

Download Data

Hourly Data (October 2016)
Hourly Data Report for October 3, 2016
Temp Definition
°C
Dew Point Temp Definition
°C
Rel Hum Definition
%
Wind Dir Definition
10's deg

Wind Spd Definition
km/h
Visibility Definition
km
Stn Press Definition
kPa
Hmdx Definition


Wind Chill Definition


Weather Definition


TIME
00:00 Legend Double Dagger 4.0 3.3 95 15 46 16.1 100.97     LegendNANA
01:00 Legend Double Dagger 4.4 3.8 96 15 46 11.3 100.77     Rain
02:00 Legend Double Dagger 4.7 4.6 99 16 41 3.2 100.61     Rain,Fog
03:00 Legend Double Dagger 5.2 5.1 99 17 37 6.4 100.45     Fog
04:00 Legend Double Dagger 5.6 5.6 100 19 32 2.8 100.33     Fog
05:00 Legend Double Dagger 5.4 5.3 99 21 28 16.1 100.24     LegendNANA
06:00 Legend Double Dagger 5.0 5.0 100 21 21 16.1 100.12     LegendNANA
07:00 Legend Double Dagger 5.1 5.1 100 22 18 16.1 100.08     LegendNANA
08:00 Legend Double Dagger 5.3 4.7 96 25 28 16.1 100.02     LegendNANA
09:00 Legend Double Dagger 4.7 4.0 95 24 22 16.1 100.02     LegendNANA
10:00 Legend Double Dagger 5.3 3.9 91 25 37 16.1 99.94     LegendNANA
11:00 Legend Double Dagger 5.8 3.3 84 25 39 16.1 99.89     LegendNANA
12:00 Legend Double Dagger 6.8 3.2 78 25 37 16.1 99.88     LegendNANA
13:00 Legend Double Dagger 6.7 2.5 74 25 46 16.1 99.87     LegendNANA
14:00 Legend Double Dagger 7.4 1.9 68 25 37 16.1 99.78     LegendNANA
15:00 Legend Double Dagger 7.5 2.2 69 25 52 16.1 99.72     LegendNANA
16:00 Legend Double Dagger 6.7 -0.2 62 25 55 16.1 99.71     LegendNANA
17:00 Legend Double Dagger 5.7 0.1 67 26 54 16.1 99.74     LegendNANA
18:00 Legend Double Dagger 5.2 0.2 70 26 48 16.1 99.76     LegendNANA
19:00 Legend Double Dagger 3.8 0.1 77 26 50 16.1 99.82     LegendNANA
20:00 Legend Double Dagger 2.9 0.1 82 27 46 16.1 99.84     LegendNANA
21:00 Legend Double Dagger 2.5 -0.6 80 29 50 16.1 99.94     LegendNANA
22:00 Legend Double Dagger 1.7 -1.1 82 29 48 16.1 100.01     LegendNANA
23:00 Legend Double Dagger 1.1 -1.3 84 29 52 16.1 100.14     LegendNANA

Notes on Data Quality.

Legend

  • E = Estimated
  • M = Missing
  • NA = Not Available
  • ‡ = Partner data that is not subject to review by the National Climate Archives
Date modified: